weather.gov     
National Weather Service

Regional Weather Roundup
NWS Homepage
This page is being discontinued on March 12, 2014.
The same data is available at this site. Please update your bookmarks.
Thank you, and we apologize for the inconvenience.
Please send an email to SR-SRH.Webmaster@noaa.gov with any concerns.


Current Version
Previous Version:    01  02  03  04  05  06  07  08  09  10  11  12  13  14  15  16  17  18  19  20  21  22  23  24  25  26  27  28  29  30  
   31  32  33  34  35  36  37  38  39  40  41  42  43  44  45  46  47  48  49  50  51  52  53  54  55  
[Printable]
851
ASCA42 TJSJ 251811
RWRPR
PUERTO RICO/U.S. VIRGIN ISLANDS HOURLY WEATHER ROUNDUP
NATIONAL WEATHER SERVICE SAN JUAN PR
200 PM AST FRI JUL 25 2014

PRZ001-004-251900-
PUERTO RICO

CITY           SKY/WX    TMP DP  RH WIND       PRES   REMARKS
SAN JUAN LMM   MOSUNNY   88  79  74 NE17G24   30.05F HX 102
PONCE          MOSUNNY   93  68  43 SE23      30.00S HX  97
MAYAGUEZ       PTSUNNY   91  70  49 SW13      30.03F HX  97
AGUADILLA      MOSUNNY   86  73  66 E25       30.05F HX  93
CEIBA          MOSUNNY   88  73  62 E13       30.07F HX  96
$$

PRZ006-007-251900-
U.S. VIRGIN ISLANDS

CITY           SKY/WX    TMP DP  RH WIND       PRES   REMARKS
CHARLOTTE AMA  PTSUNNY   91  75  59 SE13G21   30.03F HX 102
CHRISTIANSTED  MOSUNNY   91  73  55 E18G28    30.04F HX 100
$$

HOURLY WEATHER ROUNDUP FOR THE NEWS MEDIA

CITY           SKY/WX    TMP DP  RH WIND       PRES   REMARKS
MIAMI          LGT RAIN  83  71  67 SE10      30.09F
ORLANDO        MOSUNNY   92  75  57 SW7       30.05F HX 103
NEW YORK       MOSUNNY   82  49  31 VRB3      30.00F
NEWARK         MOSUNNY   81  51  35 VRB7      29.99F
CHICAGO        CLOUDY    73  55  53 SW16      29.97F
HARTFORD       SUNNY     78  51  38 E5        29.94F
BOSTON         MOSUNNY   78  53  41 VRB5G16   29.94F
DALLAS         MOSUNNY   95  67  39 SW6G17    29.98F HX  99
PHILADELPHIA   MOSUNNY   80  53  39 S8        30.01S




U.S. Dept. of Commerce
NOAA National Weather Service
1325 East West Highway
Silver Spring, MD 20910
E-mail: w-nws.webmaster@noaa.gov
Page last modified: May 16, 2007
NATIONAL WEATHER SERVICE: for Safety, for Work, for Fun - FOR LIFE